�������l�o���
Date,Time,MP-1(��Sv/h),MP-2(��Sv/h),MP-3(��Sv/h),MP-4(��Sv/h),MP-5(��Sv/h),MP-6(��Sv/h),MP-7(��Sv/h),MP-8(��Sv/h),����,����(m/s),���J
2020/11/22,00:00,0.680,0.986,0.619,1.222,0.873,0.386,0.679,0.639,���k��,2.6,��
2020/11/22,00:10,0.681,0.985,0.620,1.222,0.871,0.386,0.681,0.639,�k��,3.1,��
2020/11/22,00:20,0.681,0.985,0.618,1.222,0.873,0.385,0.680,0.639,���k��,3.6,��
2020/11/22,00:30,0.681,0.988,0.620,1.224,0.874,0.386,0.682,0.638,�k��,4.1,��
2020/11/22,00:40,0.681,0.986,0.619,1.222,0.871,0.385,0.680,0.639,�k��,4.0,��
2020/11/22,00:50,0.680,0.986,0.619,1.223,0.874,0.385,0.680,0.640,�k��,3.9,��
2020/11/22,01:00,0.679,0.987,0.621,1.220,0.874,0.385,0.680,0.639,�k��,3.8,��
2020/11/22,01:10,0.680,0.986,0.621,1.223,0.873,0.386,0.680,0.639,�k��,3.5,��
2020/11/22,01:20,0.682,0.985,0.619,1.223,0.875,0.384,0.680,0.640,�k��,3.5,��
2020/11/22,01:30,0.680,0.984,0.618,1.221,0.873,0.386,0.680,0.639,�k��,2.9,��
2020/11/22,01:40,0.680,0.987,0.619,1.222,0.873,0.385,0.679,0.639,�k�k��,1.9,��
2020/11/22,01:50,0.678,0.984,0.618,1.222,0.873,0.386,0.680,0.640,���k��,1.7,��
2020/11/22,02:00,0.681,0.986,0.619,1.222,0.873,0.386,0.679,0.639,�k��,2.0,��
2020/11/22,02:10,0.680,0.984,0.618,1.222,0.873,0.385,0.679,0.640,�k��,2.2,��
2020/11/22,02:20,0.681,0.986,0.618,1.220,0.872,0.385,0.680,0.638,�k��,3.0,��
2020/11/22,02:30,0.679,0.985,0.619,1.221,0.871,0.385,0.681,0.639,���k��,3.0,��
2020/11/22,02:40,0.679,0.987,0.619,1.221,0.873,0.384,0.680,0.640,�k��,3.6,��
2020/11/22,02:50,0.681,0.983,0.619,1.222,0.874,0.384,0.679,0.638,�k��,3.4,��
2020/11/22,03:00,0.678,0.985,0.620,1.224,0.871,0.384,0.679,0.639,���k��,2.5,��
2020/11/22,03:10,0.680,0.986,0.619,1.222,0.871,0.384,0.679,0.639,���k��,3.1,��
2020/11/22,03:20,0.680,0.987,0.618,1.224,0.874,0.385,0.681,0.641,���k��,2.8,��
2020/11/22,03:30,0.680,0.985,0.620,1.221,0.871,0.385,0.678,0.639,���k��,2.3,��
2020/11/22,03:40,0.679,0.984,0.619,1.223,0.872,0.385,0.681,0.638,���k��,2.5,��
2020/11/22,03:50,0.680,0.984,0.618,1.222,0.872,0.385,0.679,0.639,��,2.0,��
2020/11/22,04:00,0.680,0.984,0.620,1.220,0.872,0.385,0.679,0.640,��,1.7,��
2020/11/22,04:10,0.680,0.984,0.618,1.223,0.869,0.385,0.679,0.638,���쐼,1.2,��
2020/11/22,04:20,0.679,0.985,0.618,1.222,0.873,0.385,0.679,0.640,���쐼,1.7,��
2020/11/22,04:30,0.681,0.984,0.621,1.223,0.872,0.384,0.680,0.639,�쐼,2.3,��
2020/11/22,04:40,0.679,0.984,0.618,1.224,0.872,0.385,0.679,0.640,�쐼,2.6,��
2020/11/22,04:50,0.680,0.984,0.618,1.223,0.872,0.386,0.680,0.639,��쐼,2.8,��
2020/11/22,05:00,0.680,0.985,0.618,1.219,0.874,0.385,0.678,0.638,��쐼,3.5,��
2020/11/22,05:10,0.680,0.984,0.619,1.220,0.871,0.385,0.679,0.638,��,4.1,��
2020/11/22,05:20,0.679,0.985,0.619,1.220,0.871,0.384,0.678,0.639,��쐼,4.5,��
2020/11/22,05:30,0.680,0.985,0.619,1.223,0.870,0.385,0.681,0.637,��,5.0,��
2020/11/22,05:40,0.682,0.986,0.618,1.222,0.873,0.386,0.681,0.640,��,5.5,��
2020/11/22,05:50,0.681,0.986,0.618,1.222,0.873,0.386,0.680,0.640,��쐼,6.2,��
2020/11/22,06:00,0.680,0.985,0.620,1.222,0.871,0.385,0.681,0.638,��쐼,5.9,��
2020/11/22,06:10,0.677,0.984,0.618,1.221,0.870,0.386,0.679,0.639,��쐼,5.7,��
2020/11/22,06:20,0.678,0.984,0.619,1.221,0.871,0.384,0.679,0.640,��,5.6,��
2020/11/22,06:30,0.679,0.986,0.619,1.221,0.873,0.385,0.679,0.640,��쐼,6.1,��
2020/11/22,06:40,0.680,0.983,0.619,1.221,0.872,0.386,0.680,0.640,��쐼,5.8,��
2020/11/22,06:50,0.679,0.982,0.618,1.222,0.872,0.385,0.680,0.638,��쐼,6.5,��
2020/11/22,07:00,0.680,0.983,0.619,1.223,0.871,0.384,0.680,0.640,��쐼,6.6,��
2020/11/22,07:10,0.679,0.983,0.619,1.219,0.871,0.386,0.680,0.638,��쐼,7.2,��
2020/11/22,07:20,0.682,0.984,0.619,1.223,0.872,0.387,0.679,0.640,��,7.5,��
2020/11/22,07:30,0.681,0.983,0.619,1.221,0.871,0.386,0.681,0.639,��,8.0,��
2020/11/22,07:40,0.680,0.984,0.620,1.221,0.870,0.385,0.681,0.639,��,6.9,��
2020/11/22,07:50,0.682,0.985,0.620,1.221,0.871,0.385,0.681,0.640,��,6.3,��
2020/11/22,08:00,0.681,0.987,0.619,1.220,0.872,0.387,0.681,0.639,��,6.6,��
2020/11/22,08:10,0.681,0.986,0.619,1.220,0.873,0.386,0.682,0.639,��,6.0,��
2020/11/22,08:20,0.681,0.985,0.620,1.223,0.873,0.386,0.680,0.639,��,5.8,��
2020/11/22,08:30,0.682,0.984,0.619,1.221,0.873,0.387,0.681,0.640,��,6.0,��
2020/11/22,08:40,0.683,0.989,0.621,1.222,0.874,0.386,0.683,0.641,��,6.3,��
2020/11/22,08:50,0.683,0.988,0.619,1.222,0.874,0.386,0.681,0.641,��쓌,5.9,��
2020/11/22,09:00,0.684,0.987,0.621,1.223,0.873,0.387,0.684,0.639,��쓌,6.3,��
2020/11/22,09:10,0.685,0.988,0.623,1.224,0.872,0.387,0.681,0.640,��쓌,8.8,��
2020/11/22,09:20,0.684,0.986,0.621,1.225,0.872,0.388,0.679,0.641,��,8.1,��
2020/11/22,09:30,0.682,0.984,0.619,1.222,0.872,0.388,0.680,0.641,��,8.4,��
2020/11/22,09:40,0.683,0.985,0.620,1.222,0.873,0.387,0.681,0.640,��,7.0,��
2020/11/22,09:50,0.685,0.983,0.620,1.223,0.873,0.388,0.681,0.641,��,6.5,��
2020/11/22,10:00,0.684,0.983,0.623,1.221,0.874,0.387,0.680,0.641,��,7.4,��
2020/11/22,10:10,0.685,0.984,0.622,1.225,0.873,0.388,0.681,0.641,��,6.9,��
2020/11/22,10:20,0.684,0.985,0.622,1.222,0.875,0.387,0.681,0.641,��,7.5,��
2020/11/22,10:30,0.686,0.985,0.622,1.222,0.875,0.386,0.679,0.641,��,7.3,��
2020/11/22,10:40,0.684,0.985,0.622,1.223,0.876,0.387,0.680,0.640,��,6.5,��
2020/11/22,10:50,0.685,0.985,0.622,1.222,0.878,0.386,0.680,0.640,��쓌,6.4,��
2020/11/22,11:00,0.686,0.988,0.622,1.222,0.874,0.386,0.681,0.639,��쓌,9.9,��
2020/11/22,11:10,0.683,0.988,0.621,1.223,0.873,0.386,0.681,0.643,��쓌,10.7,��
2020/11/22,11:20,0.683,0.987,0.622,1.223,0.873,0.387,0.681,0.641,��쓌,11.3,��
2020/11/22,11:30,0.683,0.988,0.621,1.224,0.873,0.386,0.681,0.642,��쓌,10.6,��
2020/11/22,11:40,0.682,0.989,0.620,1.223,0.872,0.386,0.681,0.641,��,10.5,��
2020/11/22,11:50,0.685,0.989,0.620,1.222,0.871,0.387,0.682,0.639,��,10.3,��
2020/11/22,12:00,0.685,0.986,0.621,1.225,0.873,0.386,0.681,0.642,��,8.9,��
2020/11/22,12:10,0.684,0.988,0.620,1.222,0.873,0.387,0.682,0.642,��,7.4,��
2020/11/22,12:20,0.685,0.989,0.621,1.223,0.873,0.388,0.680,0.639,��,7.3,��
2020/11/22,12:30,0.684,0.991,0.622,1.223,0.875,0.387,0.681,0.641,��쓌,9.7,��
2020/11/22,12:40,0.686,0.989,0.622,1.223,0.872,0.388,0.681,0.639,��쓌,8.3,��
2020/11/22,12:50,0.686,0.989,0.622,1.223,0.873,0.388,0.680,0.639,��,9.6,��
2020/11/22,13:00,0.685,0.990,0.622,1.223,0.873,0.389,0.681,0.638,��,6.1,��
2020/11/22,13:10,0.686,0.991,0.622,1.224,0.872,0.388,0.681,0.638,��,6.4,��
2020/11/22,13:20,0.684,0.989,0.620,1.223,0.874,0.387,0.682,0.639,��,7.1,��
2020/11/22,13:30,0.684,0.989,0.620,1.224,0.873,0.388,0.681,0.638,��,7.9,��
2020/11/22,13:40,0.684,0.988,0.620,1.224,0.874,0.389,0.684,0.637,��,7.4,��
2020/11/22,13:50,0.685,0.990,0.622,1.223,0.873,0.389,0.683,0.640,��,8.0,��
2020/11/22,14:00,0.685,0.988,0.622,1.220,0.875,0.389,0.683,0.639,��,6.6,��
2020/11/22,14:10,0.686,0.990,0.621,1.227,0.876,0.388,0.682,0.639,��,7.2,��
2020/11/22,14:20,0.685,0.991,0.620,1.224,0.874,0.388,0.684,0.639,��,7.3,��
2020/11/22,14:30,0.684,0.991,0.621,1.224,0.873,0.388,0.683,0.640,��쓌,9.2,��
2020/11/22,14:40,0.684,0.990,0.619,1.222,0.874,0.386,0.682,0.639,��쓌,10.2,��
2020/11/22,14:50,0.685,0.988,0.619,1.224,0.874,0.388,0.683,0.638,��쓌,8.9,��
2020/11/22,15:00,0.685,0.991,0.621,1.224,0.874,0.387,0.683,0.639,��,8.1,��
2020/11/22,15:10,0.686,0.989,0.620,1.223,0.874,0.387,0.684,0.639,��,8.2,��
2020/11/22,15:20,0.684,0.992,0.620,1.224,0.875,0.388,0.683,0.642,��쓌,7.6,��
2020/11/22,15:30,0.684,0.992,0.622,1.224,0.876,0.388,0.683,0.641,��쓌,6.9,��
2020/11/22,15:40,0.685,0.988,0.622,1.223,0.875,0.389,0.682,0.642,��,4.7,��
2020/11/22,15:50,0.684,0.992,0.621,1.224,0.874,0.388,0.682,0.641,��,4.3,��
2020/11/22,16:00,0.683,0.992,0.622,1.224,0.875,0.388,0.683,0.641,��쐼,3.9,��
2020/11/22,16:10,0.685,0.991,0.621,1.224,0.876,0.388,0.683,0.643,��쐼,5.5,��
2020/11/22,16:20,0.684,0.993,0.621,1.224,0.874,0.390,0.683,0.642,��쐼,6.3,��
2020/11/22,16:30,0.683,0.991,0.623,1.224,0.876,0.389,0.683,0.642,��쐼,5.8,��
2020/11/22,16:40,0.684,0.994,0.624,1.222,0.873,0.389,0.684,0.642,��쐼,6.7,��
2020/11/22,16:50,0.686,0.994,0.625,1.224,0.877,0.388,0.684,0.641,��쐼,7.8,��
2020/11/22,17:00,0.688,0.992,0.624,1.224,0.875,0.389,0.684,0.640,��쐼,9.3,��
2020/11/22,17:10,0.687,0.993,0.625,1.226,0.877,0.390,0.684,0.641,�쐼,9.5,��
2020/11/22,17:20,0.688,0.991,0.623,1.225,0.877,0.389,0.684,0.641,��쐼,10.6,��
2020/11/22,17:30,0.688,0.993,0.624,1.223,0.876,0.390,0.685,0.642,�쐼,9.0,��
2020/11/22,17:40,0.688,0.993,0.624,1.224,0.875,0.388,0.684,0.643,�쐼,8.4,��
2020/11/22,17:50,0.687,0.992,0.624,1.223,0.874,0.391,0.685,0.642,�쐼,5.9,��
2020/11/22,18:00,0.690,0.994,0.623,1.223,0.876,0.389,0.682,0.642,��쐼,3.5,��
2020/11/22,18:10,0.686,0.994,0.625,1.226,0.875,0.388,0.682,0.641,��쐼,3.2,��
2020/11/22,18:20,0.687,0.990,0.622,1.224,0.878,0.389,0.684,0.644,��,3.2,��
2020/11/22,18:30,0.688,0.991,0.624,1.226,0.879,0.389,0.683,0.642,��쐼,3.1,��
2020/11/22,18:40,0.688,0.993,0.623,1.221,0.875,0.389,0.682,0.641,��쐼,3.4,��
2020/11/22,18:50,0.690,0.991,0.625,1.224,0.878,0.390,0.684,0.643,��쐼,4.4,��
2020/11/22,19:00,0.687,0.991,0.623,1.226,0.877,0.390,0.684,0.643,��쐼,5.3,��
2020/11/22,19:10,0.688,0.993,0.625,1.225,0.877,0.389,0.685,0.642,��쐼,6.0,��
2020/11/22,19:20,0.689,0.990,0.624,1.223,0.878,0.389,0.685,0.642,��쐼,6.6,��
2020/11/22,19:30,0.688,0.987,0.624,1.222,0.876,0.390,0.683,0.643,��쐼,6.5,��
2020/11/22,19:40,0.688,0.992,0.624,1.223,0.877,0.390,0.684,0.642,�쐼,7.5,��
2020/11/22,19:50,0.687,0.991,0.624,1.226,0.876,0.387,0.682,0.641,�쐼,7.6,��
2020/11/22,20:00,0.688,0.992,0.624,1.225,0.878,0.389,0.683,0.642,�쐼,6.8,��
2020/11/22,20:10,0.689,0.991,0.626,1.222,0.878,0.390,0.683,0.643,�쐼,6.9,��
2020/11/22,20:20,0.689,0.991,0.625,1.224,0.878,0.389,0.683,0.642,�쐼,7.2,��
2020/11/22,20:30,0.689,0.991,0.625,1.227,0.877,0.389,0.686,0.642,�쐼,7.4,��
2020/11/22,20:40,0.688,0.988,0.626,1.221,0.879,0.390,0.685,0.642,�쐼,6.5,��
2020/11/22,20:50,0.688,0.988,0.622,1.227,0.876,0.389,0.683,0.642,�쐼,5.7,��
2020/11/22,21:00,0.686,0.991,0.624,1.226,0.877,0.389,0.682,0.641,�쐼,6.2,��
2020/11/22,21:10,0.690,0.991,0.624,1.222,0.876,0.390,0.684,0.642,��쐼,7.0,��
2020/11/22,21:20,0.687,0.991,0.624,1.224,0.880,0.389,0.684,0.640,��쐼,6.8,��
2020/11/22,21:30,0.689,0.991,0.626,1.223,0.875,0.391,0.685,0.642,��쐼,6.3,��
2020/11/22,21:40,0.688,0.989,0.623,1.223,0.877,0.390,0.685,0.642,��쐼,6.7,��
2020/11/22,21:50,0.689,0.992,0.625,1.226,0.880,0.389,0.685,0.644,�쐼,5.4,��
2020/11/22,22:00,0.689,0.991,0.624,1.226,0.879,0.389,0.686,0.642,��쐼,5.5,��
2020/11/22,22:10,0.688,0.990,0.625,1.224,0.877,0.390,0.684,0.643,��쐼,6.2,��
2020/11/22,22:20,0.688,0.990,0.625,1.224,0.878,0.392,0.684,0.643,��쐼,6.6,��
2020/11/22,22:30,0.690,0.989,0.625,1.225,0.880,0.390,0.684,0.643,��쐼,6.3,��
2020/11/22,22:40,0.689,0.989,0.624,1.224,0.877,0.388,0.683,0.641,��,6.3,��
2020/11/22,22:50,0.689,0.990,0.624,1.224,0.878,0.389,0.683,0.642,��쐼,6.1,��
2020/11/22,23:00,0.689,0.988,0.624,1.224,0.878,0.391,0.683,0.644,��,7.2,��
2020/11/22,23:10,0.688,0.987,0.624,1.226,0.878,0.389,0.684,0.643,��,5.8,��
2020/11/22,23:20,0.689,0.991,0.625,1.222,0.876,0.390,0.684,0.642,��,5.9,��
2020/11/22,23:30,0.689,0.991,0.625,1.223,0.877,0.390,0.684,0.642,��,7.2,��
2020/11/22,23:40,0.691,0.990,0.625,1.226,0.878,0.390,0.684,0.641,��,6.7,��
2020/11/22,23:50,0.689,0.991,0.624,1.222,0.877,0.390,0.684,0.643,��,6.4,��
